Regional Weather Roundup
Issued by NWS

Home | Current Version | Previous Version | Text Only | Print | Product List | Glossary Off
Versions: 1 2 3 4 5 6 7 8 9 10 11 12 13 14 15 16 17 18 19 20 21 22 23 24 25 26 27 28 29 30 31 32 33 34 35 36 37 38 39 40 41 42 43 44 45 46 47 48 49 50

000
ASUS43 KBIS 191401
RWRND

NORTH DAKOTA REGIONAL WEATHER ROUNDUP
NATIONAL WEATHER SERVICE BISMARCK ND
900 AM CDT SUN APR 19 2015

NOTE: "FAIR" INDICATES FEW OR NO CLOUDS BELOW 12,000 FEET WITH NO
SIGNIFICANT WEATHER AND/OR OBSTRUCTIONS TO VISIBILITY.


NDZ001>003-009>011-017-191500-
NORTHWEST NORTH DAKOTA

CITY           SKY/WX    TMP DP  RH WIND       PRES   REMARKS
WILLISTON      LGT RAIN  40  35  83 NW22G30   30.02S
MINOT          CLOUDY    42  35  76 NW16G25   29.89S
MINOT AFB      MOSUNNY   44  40  89 NW22      29.88S
$$

NDZ018>021-031>035-040>046-191500-
SOUTHWEST NORTH DAKOTA

CITY           SKY/WX    TMP DP  RH WIND       PRES   REMARKS
BISMARCK       SUNNY     43  33  68 NW13G25   29.92S
DICKINSON      CLOUDY    38  30  73 NW20      29.97F
GARRISON         N/A     41  35  79 NW20G28   29.90F
HETTINGER ARPT SUNNY     37  28  70 NW25G35   30.01S
$$

NDZ004>008-012>016-024-026-027-054-191500-
NORTHEAST NORTH DAKOTA

CITY           SKY/WX    TMP DP  RH WIND       PRES   REMARKS
GRAND FORKS    LGT RAIN  45  43  93 NW14      29.72R
GRND FRKS AFB  LGT RAIN  44  42  91 NW15      29.71F
DEVILS LAKE    CLOUDY    43  36  75 NW18      29.77F
$$

NDZ022-023-025-028>030-036>039-047>053-191500-
SOUTHEAST NORTH DAKOTA

CITY           SKY/WX    TMP DP  RH WIND       PRES   REMARKS
FARGO          CLOUDY    48  46  93 NW16      29.69F
JAMESTOWN      CLOUDY    43  38  82 NW21      29.78F
$$




USA.gov is the U.S. government's official web portal to all federal, state and local government web resources and services.